Dewpoint
55 55 55 55 55 55 55 56 56 56 56 56 56 57 57 57 57 57 57 57 57 57 56 56 55 55 55 55 55 55 56 51 49 47 47 43 50 61 61 56 61 62 65 62 63 63 62 61 60 61 60 56 55 56 58 62 62 62 59 56 54 53 51 51 53 50 50 54 58 59 59 61 58 60 61 61 60 59 59 59 59 60 60 61 62 61 61 62
55 55 55 55 56 55 56 55 56 56 56 56 56 56 57 57 57 57 57 57 57 57 56 56 55 55 55 55 55 55 54 51 46 46 44 44 56 55 58 62 65 63 64 58 62 60 59 59 59 59 58 50 56 52 59 58 61 58 56 55 54 53 53 54 53 54 53 53 58 58 59 58 58 59 60 58 58 59 59 59 60 60 61 61 62 62 61 61
55 55 55 55 55 55 56 56 56 56 56 56 56 57 57 57 57 57 57 57 57 57 56 56 55 55 55 55 56 57 53 47 47 45 45 60 61 57 59 60 66 64 62 56 59 57 57 58 58 56 56 49 49 50 56 55 59 58 56 55 53 56 53 55 55 54 54 53 55 58 58 58 58 59 60 58 58 58 58 58 59 60 60 60 61 62 61 62
55 55 55 55 55 55 55 55 55 56 56 56 56 57 57 57 57 57 57 57 57 57 56 56 55 55 55 55 55 55 52 48 41 39 47 66 68 63 60 60 67 64 59 56 57 54 55 57 57 54 52 48 46 49 49 55 55 57 56 54 57 55 54 55 54 54 55 55 55 56 58 57 58 59 58 58 57 57 58 58 59 59 59 60 61 61 61 61
55 55 55 55 55 55 55 55 56 56 56 56 56 57 57 57 57 57 57 57 57 57 56 56 55 55 55 56 56 53 49 35 30 34 54 69 70 69 63 61 67 58 53 53 54 52 53 56 55 52 49 41 45 47 47 53 54 56 54 54 56 54 54 56 55 56 54 54 56 56 57 57 59 58 57 57 58 56 56 59 59 60 61 61 60 61 60 61
54 55 55 55 55 55 55 55 56 56 56 56 56 56 56 56 56 56 57 57 57 57 56 56 55 55 55 56 54 50 41 -11 28 47 65 71 70 69 63 62 67 57 54 53 51 51 54 55 50 48 44 36 43 39 42 49 55 52 54 55 56 56 56 58 55 56 54 52 54 55 57 57 57 57 58 58 59 58 58 59 59 61 61 61 61 61 60 60
55 55 55 55 55 55 55 55 55 56 56 56 56 56 56 56 56 56 56 56 56 56 56 56 55 54 56 56 51 45 38 12 37 49 66 70 68 66 63 63 67 56 55 54 53 53 53 51 45 42 36 32 39 35 36 45 54 52 49 53 54 55 55 58 56 56 53 51 51 54 56 56 56 55 57 57 57 58 59 59 61 62 62 62 61 61 60 61
55 55 55 54 54 54 55 55 55 56 56 56 56 56 55 56 56 56 56 57 57 57 56 55 55 55 55 52 49 33 27 15 44 39 58 66 62 61 61 52 57 57 58 54 52 51 50 45 41 40 32 29 30 34 42 47 50 50 48 51 53 54 54 55 55 53 53 51 51 53 54 54 56 55 57 57 56 59 59 61 61 62 62 61 61 61 61 61
55 55 54 54 54 54 55 55 55 56 55 55 55 55 55 55 55 56 56 56 56 57 56 56 55 55 57 52 39 25 13 41 40 37 42 53 53 55 53 49 54 56 56 50 48 47 44 42 40 36 27 25 30 34 43 42 42 48 48 49 51 50 52 52 52 52 51 50 50 52 52 53 54 55 55 56 57 60 61 61 61 62 61 61 61 62 62 62
55 55 54 55 54 54 55 55 55 55 55 55 55 55 55 55 55 56 56 56 57 57 57 56 56 56 53 48 31 19 34 37 39 37 42 53 52 53 52 51 55 55 51 48 48 47 43 41 38 34 29 28 29 30 39 38 40 46 47 47 48 49 50 51 51 51 51 51 49 50 51 51 54 54 52 55 58 61 61 61 62 62 61 61 60 61 62 62
54 54 55 54 54 54 54 55 55 55 55 55 54 54 54 55 55 55 56 58 57 56 56 57 57 56 49 41 29 14 36 36 36 35 40 52 52 50 52 50 54 52 49 48 47 46 44 40 37 35 31 21 30 28 34 37 34 40 45 44 44 45 46 48 50 50 51 49 49 49 49 50 53 54 52 54 58 61 60 61 61 62 62 62 61 61 63 62
54 54 54 54 54 54 54 55 55 55 55 54 54 54 54 55 55 55 57 58 57 58 56 57 57 54 46 38 31 26 31 28 31 36 37 40 48 49 49 50 52 51 49 46 45 45 44 39 37 35 18 24 23 25 30 32 33 35 38 36 38 42 42 45 47 49 49 47 48 49 47 47 51 52 52 55 59 60 60 61 61 61 62 62 62 61 63 62
54 54 54 54 54 54 54 54 54 54 54 54 54 54 54 54 55 57 58 57 57 57 57 58 58 51 45 39 30 35 37 39 39 39 32 35 38 45 48 48 49 49 48 46 44 45 44 40 38 34 22 22 16 19 27 27 27 29 29 31 32 35 40 44 46 47 47 47 47 48 46 44 51 52 52 56 59 59 59 61 61 61 62 62 62 62 63 63
54 54 53 53 53 53 54 54 54 54 54 54 54 53 54 54 56 59 59 59 58 58 58 58 55 49 47 28 31 35 38 38 41 43 26 33 41 41 48 50 46 48 49 46 44 44 41 41 38 33 24 23 23 27 23 25 26 23 23 26 25 31 37 44 46 47 45 47 47 47 44 48 48 49 51 55 58 58 58 59 60 61 61 62 62 62 62 62
53 53 54 54 53 54 54 54 54 53 54 53 53 52 54 54 58 58 58 59 58 59 59 58 53 49 44 29 33 36 50 46 44 29 24 30 21 45 45 50 47 45 43 44 43 44 43 40 36 31 24 24 26 25 15 17 25 22 21 21 23 28 36 44 46 46 45 46 46 46 44 42 44 48 50 55 57 57 57 58 60 60 61 62 62 62 62 62
53 53 53 54 53 53 54 53 53 53 54 53 51 53 55 57 59 58 59 59 60 59 55 54 49 49 43 15 24 46 42 18 19 22 25 26 22 31 47 48 46 41 39 42 44 43 41 37 33 30 28 25 24 20 16 14 18 23 19 19 21 26 33 41 43 45 45 45 46 46 51 48 44 46 48 56 56 55 56 57 59 60 61 62 62 62 62 62
53 53 53 53 53 54 54 53 53 53 52 52 52 52 55 58 59 59 59 59 58 57 52 49 47 48 33 25 29 22 17 18 19 20 23 23 21 35 47 44 39 37 36 38 40 40 36 33 32 30 28 24 21 19 19 17 16 19 21 20 21 23 30 37 41 44 45 45 44 45 44 44 49 46 52 53 54 55 54 56 59 60 61 62 62 62 62 62
53 53 53 53 54 54 53 52 53 52 52 51 52 52 54 60 60 61 59 58 52 53 53 50 48 43 25 17 16 16 17 17 18 18 19 21 22 39 45 40 37 35 33 34 37 35 34 31 31 26 26 25 23 17 17 17 15 15 21 20 19 23 28 33 38 41 43 44 43 44 44 43 43 47 49 52 53 54 54 55 57 59 60 62 62 62 62 62
52 53 53 53 53 53 53 53 52 52 51 52 52 55 55 59 58 53 43 44 49 48 44 23 23 17 13 16 17 17 18 18 19 20 28 30 25 44 45 41 35 33 30 29 31 33 33 29 31 28 23 22 20 16 13 14 14 12 20 20 20 22 27 31 39 39 42 42 42 42 43 46 44 45 51 51 51 53 53 54 57 59 60 62 62 61 62 62
53 53 53 53 53 53 53 53 52 51 50 49 42 45 45 33 41 36 34 21 15 17 17 17 18 19 18 16 16 18 19 20 18 23 30 28 34 43 43 39 33 30 28 24 28 29 33 28 28 26 22 20 18 18 17 14 25 21 18 22 21 21 24 28 34 38 40 40 41 42 42 44 49 44 45 49 50 52 52 53 56 58 60 61 61 61 62 63
52 52 53 52 52 52 52 52 51 50 50 46 39 29 25 27 21 18 24 18 18 18 19 20 19 17 15 17 18 17 17 17 19 20 22 35 41 42 40 36 31 28 27 24 24 26 32 27 27 25 21 21 21 20 20 15 20 24 24 26 24 21 22 24 28 34 36 38 40 42 41 42 43 43 42 47 50 49 50 53 56 58 59 61 62 62 63 63
52 52 52 52 52 52 51 51 50 50 50 49 34 28 29 32 32 34 32 17 15 19 19 20 21 20 17 18 19 18 19 18 18 20 25 29 41 38 39 33 31 27 27 24 24 24 25 23 23 25 22 22 21 20 19 17 16 20 21 23 24 24 25 25 27 33 34 35 38 39 40 41 42 42 42 42 48 51 50 52 55 59 60 61 61 62 63 63
52 52 52 52 51 51 51 50 50 49 48 32 28 29 30 34 37 39 33 27 20 21 21 17 18 15 11 17 18 17 15 17 17 20 21 23 36 37 38 33 31 26 26 24 22 23 21 20 20 21 21 20 19 19 19 18 18 20 17 18 21 22 22 23 27 33 32 33 36 40 37 38 40 42 41 41 44 52 52 51 54 58 60 61 60 62 63 63
52 52 52 52 52 51 51 50 49 50 41 35 30 31 35 37 37 36 30 21 12 19 20 16 19 15 11 13 15 16 16 17 18 19 23 21 30 30 36 34 31 27 25 23 22 21 19 17 19 19 20 19 19 21 21 19 16 12 9 8 16 22 24 26 26 29 31 32 33 35 36 37 38 37 39 41 42 48 49 50 53 57 59 60 61 62 63 63
51 52 52 52 51 51 49 49 42 35 37 35 32 35 36 40 41 40 33 23 15 18 22 23 20 14 13 16 15 15 16 18 18 20 25 23 21 23 28 35 33 27 24 23 22 21 17 18 22 18 19 20 19 16 15 13 11 10 10 10 13 21 25 27 28 29 27 27 29 31 34 36 39 38 37 39 40 45 47 50 53 57 59 61 60 62 63 62
51 52 52 51 52 50 49 44 37 33 34 29 30 34 36 39 41 42 31 20 9 14 17 12 14 10 14 11 14 16 17 14 17 20 26 27 29 24 26 30 33 30 29 26 22 19 15 17 22 19 21 20 17 13 13 13 10 9 9 11 11 17 26 29 28 28 30 29 27 28 30 33 37 37 39 40 40 44 47 50 52 56 60 60 61 61 62 62
51 52 52 51 51 49 44 33 38 37 28 27 32 36 37 38 48 39 25 14 7 13 13 11 12 11 14 11 14 13 14 14 17 22 24 29 25 25 20 20 30 30 31 29 25 18 17 17 22 21 18 16 14 12 13 14 10 8 8 9 9 9 19 27 29 28 28 29 28 29 29 31 33 35 39 38 39 42 47 50 53 53 59 59 60 60 62 62
52 52 51 51 50 50 46 43 39 30 30 33 36 37 39 45 46 40 23 10 8 13 11 13 11 14 13 11 14 12 14 17 16 21 24 27 27 23 19 18 25 27 29 31 25 22 19 17 20 21 18 15 12 12 13 14 12 9 10 11 12 9 9 18 26 28 28 29 30 29 30 31 32 35 38 38 38 38 45 49 52 52 57 59 60 59 61 62
51 51 51 50 50 49 50 43 40 34 34 36 37 38 38 47 39 23 19 9 17 12 14 12 14 13 13 13 11 13 16 19 16 19 25 27 26 24 18 18 18 21 26 29 26 23 25 22 19 23 20 15 17 17 15 14 13 14 12 24 20 16 10 7 14 24 29 32 31 32 29 30 31 31 32 36 38 40 43 43 47 51 53 58 59 60 60 62
52 51 51 50 49 49 49 47 41 36 37 38 39 40 37 37 30 16 10 10 13 10 12 12 13 11 13 8 10 11 13 16 19 21 26 23 22 24 21 23 20 19 21 27 27 25 25 31 27 23 21 17 18 20 21 18 16 17 14 18 20 17 14 10 11 22 29 29 31 29 28 28 27 30 30 32 35 38 37 42 44 49 52 55 59 59 59 61
51 51 50 50 46 40 41 40 33 36 39 43 40 36 34 28 18 14 12 12 12 11 12 13 11 12 11 9 7 10 11 14 17 19 22 23 21 21 21 20 21 19 19 21 25 26 25 27 27 25 26 22 19 19 22 22 20 18 14 16 19 20 20 20 16 22 24 25 30 29 28 29 28 30 30 33 35 35 35 36 43 44 50 55 58 56 58 60
50 49 50 49 46 44 36 32 37 39 42 41 38 29 22 17 14 10 9 10 8 10 9 10 12 12 11 12 9 11 8 12 13 19 20 22 22 21 21 22 23 18 16 17 18 23 23 24 27 27 31 25 23 21 22 23 22 19 17 21 17 19 25 19 21 19 20 21 25 25 27 28 29 33 32 30 30 34 37 34 37 42 47 53 55 58 58 59
50 49 49 49 47 44 39 39 41 44 42 39 34 27 17 14 16 11 10 9 11 11 11 12 11 12 11 12 11 10 15 8 10 15 19 23 22 22 22 21 22 22 20 17 15 17 19 21 22 25 27 29 25 22 22 22 21 19 19 21 18 19 23 22 19 21 20 20 20 23 25 24 27 29 33 31 32 33 35 38 36 41 45 49 53 57 56 58
49 49 49 46 42 40 39 45 42 40 38 38 34 19 16 13 14 22 11 10 10 11 12 11 11 12 12 10 13 11 7 14 8 10 16 20 21 23 23 23 22 21 22 20 19 15 16 17 18 21 22 27 26 24 22 21 22 20 19 17 19 21 22 23 19 18 16 19 20 19 20 25 23 27 27 31 32 34 34 34 40 40 40 45 49 54 55 58
49 50 49 46 45 42 37 37 41 40 38 33 24 17 14 16 16 12 11 12 11 10 11 12 11 9 12 12 13 15 11 10 12 8 14 13 22 23 24 22 22 22 24 19 19 20 17 18 21 21 22 26 26 26 24 21 21 21 20 19 18 18 21 20 21 18 18 17 14 17 17 23 25 32 31 32 30 32 32 33 35 37 38 40 42 48 51 54
48 45 44 41 38 34 35 37 38 38 36 28 21 19 13 19 14 11 14 14 11 10 10 11 12 8 10 12 15 12 15 11 12 9 15 15 21 22 25 22 20 21 21 23 26 21 19 17 25 26 27 25 25 26 25 23 21 22 21 19 18 20 17 21 24 20 22 22 21 21 22 22 22 22 27 28 28 29 30 29 28 31 33 40 38 41 49 52
45 45 42 39 34 34 37 38 38 37 34 24 19 17 18 18 19 17 19 15 12 12 11 7 12 7 11 8 11 13 13 11 14 9 12 15 18 25 24 23 20 19 21 24 24 26 24 22 24 25 24 25 27 26 25 24 23 22 22 22 21 21 21 23 17 22 20 18 21 17 18 22 22 20 22 24 24 24 27 28 26 32 34 35 35 38 46 50
46 43 40 36 33 35 37 40 37 35 27 24 25 26 19 19 20 19 18 17 14 14 11 11 14 13 12 12 10 13 14 9 13 11 9 14 15 27 25 24 23 20 19 23 24 25 24 21 20 24 24 26 28 28 25 27 27 24 22 23 21 21 21 24 24 20 18 18 18 15 13 12 18 23 22 19 18 18 24 27 27 26 30 34 35 39 46 47
47 43 36 34 34 35 37 41 37 31 27 24 23 23 20 20 21 19 19 16 15 14 13 14 12 16 13 11 14 12 16 10 13 13 12 14 11 26 24 25 23 21 19 20 22 23 24 21 20 22 24 25 27 26 25 23 24 25 26 24 23 24 24 24 25 27 25 19 19 18 13 16 19 17 16 21 22 20 16 21 23 23 27 30 35 40 45 47
39 39 32 34 34 37 40 39 33 27 24 25 23 23 23 21 21 21 20 19 16 16 16 14 17 13 17 15 15 13 15 15 15 14 14 14 14 24 22 23 21 21 20 20 22 25 24 30 24 17 25 25 24 25 23 23 22 23 24 25 25 23 23 25 24 23 22 23 22 23 17 20 23 20 15 20 25 26 21 22 26 26 27 25 33 39 42 47
41 37 33 35 35 38 37 30 27 24 25 26 26 25 27 23 22 22 21 20 18 18 17 17 16 15 17 15 13 11 16 14 14 14 14 12 14 16 27 22 21 20 19 19 19 24 27 27 25 24 20 24 21 23 24 22 20 21 23 24 23 23 22 22 24 22 21 21 23 22 22 28 20 19 18 19 22 21 26 28 27 28 26 32 34 38 42 46
38 32 32 35 35 36 33 27 26 28 25 26 25 28 28 32 23 23 22 21 20 19 20 18 20 18 15 17 18 17 15 13 13 16 14 13 18 17 22 23 22 21 19 20 22 26 30 32 29 23 24 22 21 23 27 26 26 25 24 23 25 24 25 25 23 24 23 22 20 22 23 27 28 27 26 22 20 15 18 19 21 20 28 28 29 28 40 48
36 34 37 36 35 34 29 28 31 29 27 27 29 28 27 26 25 25 24 23 20 22 19 18 20 20 19 21 19 17 16 17 16 14 16 18 18 20 24 22 24 21 19 19 24 28 38 30 26 26 28 27 27 26 26 27 26 25 25 27 25 23 24 25 24 28 26 24 23 23 26 24 26 33 30 23 31 25 30 24 30 24 19 23 28 32 40 48
38 36 34 34 36 35 29 27 28 27 26 27 27 26 27 27 27 27 25 26 24 22 19 21 21 22 21 22 21 18 21 18 21 20 19 22 17 27 25 22 24 22 20 22 27 34 29 30 28 25 24 26 22 24 23 26 26 24 23 26 28 27 28 28 29 33 31 28 26 25 22 24 26 32 33 28 23 20 22 22 24 26 28 27 33 40 39 51
40 38 35 33 35 34 30 31 28 27 28 28 27 27 25 27 29 28 27 27 26 24 23 21 25 24 23 24 23 22 21 20 19 19 20 20 18 23 24 25 25 22 23 27 35 29 30 31 33 25 21 19 18 19 24 27 25 24 25 24 29 27 29 30 28 32 28 35 34 27 27 30 32 36 33 32 29 28 25 23 22 26 31 27 27 32 52 57
34 35 34 33 33 32 31 32 30 28 28 28 27 27 26 25 27 29 29 26 27 26 25 25 24 23 25 24 26 25 24 23 22 23 26 23 22 21 28 27 26 23 29 34 33 29 27 29 31 31 30 25 28 33 28 28 26 25 25 27 27 27 27 30 31 29 27 31 32 34 32 31 31 28 33 30 29 24 21 27 26 28 29 31 42 43 44 51
37 35 34 34 32 31 31 30 30 30 29 31 29 28 26 25 26 27 28 28 30 26 25 26 25 24 30 27 28 26 24 23 26 27 27 25 26 24 26 26 25 26 31 30 31 27 28 25 25 32 32 31 29 29 23 23 22 22 24 25 26 26 28 29 28 28 37 35 27 34 38 30 30 31 31 32 29 29 26 31 29 33 36 37 40 53 56 43
34 35 35 37 32 30 30 30 29 30 29 27 30 29 27 25 27 28 27 29 29 29 25 30 30 29 28 29 29 27 30 30 29 27 30 27 28 26 26 25 24 27 29 23 25 26 24 22 21 23 23 22 21 21 21 22 23 23 23 24 25 26 28 29 31 30 35 34 31 36 43 39 33 28 28 32 42 41 37 42 39 36 37 44 47 44 38 35
37 36 36 37 32 32 32 32 31 28 29 29 29 27 26 25 26 29 29 28 28 29 31 26 27 29 31 32 32 30 33 28 26 30 31 31 30 30 27 27 26 26 24 25 25 28 27 20 23 23 22 21 21 20 20 20 21 22 23 24 25 25 26 27 28 30 31 37 38 38 40 37 33 33 35 41 45 41 39 42 40 42 46 54 53 50 42 38
38 38 37 35 35 32 32 30 30 29 28 31 30 29 30 28 28 29 29 28 28 29 31 27 28 29 31 31 35 30 31 31 31 30 32 31 30 31 29 29 25 25 25 26 25 29 26 24 24 26 27 25 24 23 21 20 21 22 20 21 23 24 25 26 26 27 31 31 32 32 37 38 32 40 52 51 49 43 42 39 48 53 55 55 55 51 48 52
41 44 44 40 35 34 34 31 30 29 27 29 29 31 30 29 30 30 30 29 29 30 30 28 30 30 31 31 32 32 32 32 32 31 31 30 28 29 28 28 25 27 27 25 27 27 26 23 23 22 23 22 22 21 19 20 21 21 21 21 23 24 25 25 27 29 31 34 39 38 37 34 34 50 53 51 47 45 41 50 54 57 59 60 61 59 60 62
45 45 45 42 35 38 32 32 32 33 26 31 32 32 31 31 31 32 29 32 33 33 33 31 31 31 31 33 32 32 31 29 29 30 30 29 28 28 28 27 27 27 27 26 27 25 27 24 20 19 16 17 18 21 21 22 20 20 22 22 24 25 26 26 26 46 46 44 39 39 36 44 53 54 51 52 52 52 50 51 59 61 63 61 62 62 62 63